Weather in Hamelin

Germany     52°06′20″N   9°21′06″E
temp.,
°C
wind,
m/s
gust,
m/s
humid.,
%
clouds,
%
prec.,
mm/h
press.,
hPa
HPBL,
m
14 may, fri
fri1423:00+9nnw1194100 0.0 100610
02:00+9nw1197100 0.0 100610
05:00+9w1299100 0.4 100675
08:00+10w1498100 1.0 1006323
11:00+10w3797100 0.6 1007521
14:00+10w4795100 1.3 1008511
17:00+14wnw35635 0.1 1007938
20:00+12nnw11790 0.1 100712
15 may, sat
sat1523:00+8s11926 0.0 100810
02:00+6s22955 0.0 100815
05:00+5s22965 0.0 100720
08:00+9s368398 0.0 1007318
11:00+11ssw4684100 0.5 10051011
14:00+13sw577097 0.9 10041402
17:00+12wsw5684100 1.3 1004889
20:00+10s2489100 1.9 1003128
16 may, sun
sun1623:00+8sw2698100 0.7 1004319
02:00+7sw279769 0.9 1004364
05:00+5s259894 0.1 1004177
08:00+8ssw399228 0.1 1004494
11:00+12sw587341 0.6 10031373
14:00+12wsw5879100 2.4 10031332
17:00+11wsw5889100 2.1 1003798
20:00+10wsw3894100 3.9 1002392
17 may, mon
mon1723:00+7ssw229771 0.2 100455
02:00+5s2297100 0.2 100340
05:00+7sse2699100 1.4 1002238
08:00+9sw4994100 1.6 1003867
11:00+11sw61187100 0.6 10031478
14:00+11sw6128379 1.2 10041162
17:00+10sw5108479 0.4 1004958
20:00+10sw5108234 0.6 1005788
18 may, tue
tue1823:00+9sw4118799 0.0 1006595
02:00+7sw3119850 0.1 1006363
05:00+8wsw41097100 0.1 1007658
08:00+9sw41097100 0.4 1008801
11:00+8wsw71296100 3.4 10091210
14:00+9wsw7139598 3.9 10111186
17:00+12wsw6117358 0.8 10111411
20:00+9wsw51191100 1.8 1011729